Flag for U.S.A. Weather past 2 weeks in Visalia, California, U.S.A.

Now
52 °F

Clear.


Feels Like: 50 °F
Forecast: 54 / 78 °F
Wind: 6 mph from Southwest

Location: Visalia Municipal

Current Time: Apr 21, 2015 at 6:20:05 AM

Latest Report: Apr 21, 2015 at 5:55 AM


Visibility: 10 mi

Pressure: 29.80 "Hg

Humidity: 77%

Dew point: 45 °F

Location of VisaliaLocation

Historic Weather in Visalia — Graph

°F

Visalia temperature yesterday

Maximum temperature yesterday: 88 °F (at 3:55 PM)
Minimum temperature yesterday: 54 °F (at 4:55 AM)
Average temperature yesterday: 69 °F

Past Weeks' High & Low Weather Summary

 TemperatureHumidityPressure
High90 °F (Apr 19, 4:55 PM)82% (Apr 7, 7:15 PM)30.27 "Hg (Apr 7, 7:15 PM)
Low39 °F (Apr 15, 6:15 AM)15% (Apr 13, 5:15 PM)29.69 "Hg (Apr 20, 6:55 PM)
Average61 °F50%29.99 "Hg
* Reported Apr 6 5:15 AM — Apr 21 5:15 AM, Visalia, Weather by CustomWeather, © 2015

Note: Actual official high and low records may vary slightly from our data, if they occured in-between our weather recording intervals... More about our weather records

Advertising

Visalia weather history for previous 24 hours

 ConditionsComfort  
Time TempWeatherWind HumidityBarometerVisibility
5:15 AM
Tue, Apr 21
54 °FClear.No wind72%29.79 "Hg10 mi
4:55 AM55 °FClear.No wind67%29.79 "Hg10 mi
4:35 AM57 °FClear.No wind67%29.79 "Hg10 mi
4:15 AM59 °FClear.No wind63%29.79 "Hg10 mi
3:55 AM57 °FClear.No wind67%29.78 "Hg1 mi
3:35 AM61 °FClear.5 mph63%29.78 "Hg10 mi
3:15 AM61 °FClear.7 mph63%29.78 "Hg10 mi
2:55 AM59 °FClear.6 mph68%29.78 "Hg10 mi
2:35 AM59 °FClear.3 mph68%29.77 "Hg10 mi
2:15 AM59 °FClear.3 mph68%29.77 "Hg10 mi
1:55 AM61 °FClear.5 mph63%29.77 "Hg10 mi
1:35 AM61 °FClear.5 mph59%29.77 "Hg10 mi
1:15 AM61 °FClear.7 mph63%29.77 "Hg10 mi
12:55 AM61 °FClear.6 mph63%29.77 "Hg10 mi
12:35 AM61 °FClear.8 mph63%29.77 "Hg10 mi
12:15 AM63 °FClear.7 mph56%29.77 "Hg10 mi
11:55 PM
Mon, Apr 20
66 °FClear.No wind52%29.76 "Hg10 mi
11:35 PM68 °FClear.7 mph49%29.75 "Hg10 mi
11:15 PM70 °FClear.8 mph46%29.75 "Hg10 mi
10:55 PM70 °FClear.9 mph46%29.74 "Hg10 mi
10:35 PM72 °FClear.10 mph44%29.74 "Hg10 mi
10:15 PM70 °FClear.8 mph43%29.74 "Hg10 mi
9:55 PM72 °FClear.7 mph41%29.74 "Hg10 mi
9:35 PM72 °FClear.8 mph41%29.73 "Hg10 mi
9:15 PM73 °FClear.5 mph38%29.73 "Hg10 mi
8:15 PM75 °FSunny.10 mph36%29.71 "Hg10 mi
7:55 PM77 °FSunny.9 mph34%29.70 "Hg10 mi
7:35 PM79 °FSunny.9 mph34%29.69 "Hg10 mi
7:15 PM81 °FSunny.9 mph32%29.70 "Hg10 mi
6:55 PM82 °FSunny.10 mph30%29.69 "Hg10 mi
6:35 PM84 °FSunny.9 mph27%29.70 "Hg10 mi
6:15 PM86 °FSunny.13 mph27%29.70 "Hg10 mi
5:55 PM86 °FSunny.12 mph27%29.70 "Hg10 mi
5:35 PM84 °FSunny.10 mph33%29.70 "Hg10 mi
5:15 PM84 °FSunny.9 mph33%29.70 "Hg10 mi
4:55 PM84 °FSunny.12 mph33%29.70 "Hg10 mi
4:35 PM84 °FSunny.12 mph33%29.71 "Hg10 mi
4:15 PM86 °FSunny.10 mph29%29.71 "Hg10 mi
3:55 PM88 °FSunny.12 mph31%29.72 "Hg10 mi
3:35 PM86 °FSunny.9 mph33%29.72 "Hg10 mi
3:15 PM84 °FSunny.8 mph35%29.74 "Hg10 mi
2:55 PM84 °FSunny.6 mph37%29.75 "Hg10 mi
2:35 PM82 °FSunny.No wind40%29.76 "Hg10 mi
2:15 PM82 °FSunny.6 mph40%29.77 "Hg9 mi
1:55 PM82 °FSunny.5 mph42%29.77 "Hg9 mi
1:35 PM81 °FSunny.5 mph42%29.78 "Hg5 mi
1:15 PM79 °FSunny.7 mph45%29.78 "Hg9 mi
12:55 PM79 °FSunny.5 mph45%29.79 "Hg10 mi
12:35 PM75 °FSunny.8 mph50%29.80 "Hg9 mi
12:15 PM75 °FSunny.6 mph50%29.81 "Hg10 mi
11:55 AM73 °FSunny.No wind50%29.81 "Hg9 mi
11:35 AM73 °FSunny.3 mph53%29.82 "Hg4 mi
11:15 AM70 °FSunny.No wind57%29.82 "Hg9 mi
10:55 AM70 °FSunny.3 mph57%29.83 "Hg9 mi
10:35 AM68 °FSunny.No wind56%29.83 "Hg10 mi
10:15 AM66 °FSunny.6 mph60%29.83 "Hg10 mi
9:55 AM66 °FSunny.No wind60%29.83 "Hg10 mi
9:35 AM64 °FSunny.5 mph64%29.83 "Hg10 mi
9:15 AM64 °FSunny.No wind60%29.83 "Hg10 mi
8:55 AM63 °FSunny.No wind64%29.83 "Hg9 mi
8:35 AM61 °FSunny.No wind63%29.83 "Hg10 mi
8:15 AM61 °FSunny.No wind63%29.84 "Hg9 mi
7:55 AM57 °FSunny.No wind67%29.84 "Hg10 mi
7:35 AM57 °FSunny.No wind67%29.83 "Hg10 mi
7:15 AM55 °FClear.3 mph67%29.83 "Hg10 mi
6:55 AM54 °FClear.5 mph72%29.82 "Hg10 mi
6:35 AM54 °FClear.5 mph67%29.82 "Hg10 mi
6:15 AM54 °FClear.5 mph67%29.81 "Hg10 mi
Weather by CustomWeather, © 2015

See weather overviewHow to use our weather pages